Middleton, WI

7:24 PM CDT on October 23, 2017 (GMT -0500)
Middleton

Weather History for KC29 - March, 2013

Change the Weather History Date:

Tuesday, March 5, 2013

  Actual Average (KMSN) Record (KMSN)
Temperature  
Mean Temperature 28 °F -  
Max Temperature 30 °F 36 °F 68 °F (2000)
Min Temperature 26 °F 19 °F -12 °F (1890)
Degree Days  
Heating Degree Days 37    
Moisture  
Dew Point 26 °F    
Average Humidity 87    
Maximum Humidity 96    
Minimum Humidity 79    
Precipitation  
Precipitation 0.05 in - - ()
Sea Level Pressure  
Sea Level Pressure 29.96 in    
Wind  
Wind Speed 10 mph (NNE)    
Max Wind Speed 18 mph    
Max Gust Speed 22 mph    
Visibility 5 miles    
Events      
Averages and records for this station are not official NWS values.
T = Trace of Precipitation, MM = Missing Value Source: NWS Daily Summary

Daily Weather History Graph

Daily Weather History Graph

Search for Another Location

Airport or City:

Trip Planner

Search our weather history database for the weather conditions in past years. The results will help you decide how hot, cold, wet, or windy it might be!

Date:

Astronomy

Mar. 05, 2013 Rise Set
Actual Time 6:27 AM CST 5:52 PM CST
Civil Twilight 5:58 AM CST 6:21 PM CST
Nautical Twilight 5:25 AM CST 6:54 PM CST
Astronomical Twilight 4:52 AM CST 7:27 PM CST
Moon 1:46 AM CST (3/5) 11:24 AM CST (3/5)
Length of Visible Light 12h 22m
Length of Day
11h 25m
Last Quarter, 40% of the Moon is Illuminated
Mar 5
Last Quarter
Mar 11
New
Mar 19
First Quarter
Mar 27
Full
Apr 2
Last Quarter

Hourly Weather History & Observations

Time (CST) Temp. Windchill Dew Point Humidity Pressure Visibility Wind Dir Wind Speed Gust Speed Precip Events Conditions
12:15 AM 29.3 °F 20.2 °F 23.5 °F 79% 30.00 in 10.0 mi ENE 10.4 mph - N/A   Overcast
12:35 AM 29.3 °F 20.8 °F 23.5 °F 79% 30.00 in 10.0 mi ENE 9.2 mph - N/A   Overcast
12:55 AM 29.3 °F 20.8 °F 23.7 °F 80% 30.00 in 10.0 mi ENE 9.2 mph - N/A   Overcast
1:15 AM 29.3 °F 21.5 °F 23.9 °F 80% 30.00 in 10.0 mi East 8.1 mph - N/A   Overcast
1:35 AM 29.3 °F 20.8 °F 23.9 °F 80% 29.99 in 10.0 mi ENE 9.2 mph - N/A   Overcast
1:55 AM 29.7 °F 20.7 °F 23.9 °F 79% 29.98 in 10.0 mi ENE 10.4 mph - N/A   Overcast
2:15 AM 29.7 °F 21.3 °F 23.9 °F 79% 29.97 in 10.0 mi ENE 9.2 mph - N/A   Overcast
2:35 AM 29.7 °F 22.0 °F 24.3 °F 80% 29.97 in 10.0 mi ENE 8.1 mph - N/A   Overcast
2:55 AM 29.7 °F 22.0 °F 24.4 °F 81% 29.95 in 10.0 mi ENE 8.1 mph - N/A   Overcast
3:15 AM 29.8 °F 20.9 °F 24.6 °F 81% 29.94 in 10.0 mi ENE 10.4 mph - N/A   Overcast
3:35 AM 30.0 °F 23.2 °F 24.6 °F 80% 29.94 in 10.0 mi ENE 6.9 mph - N/A   Overcast
3:55 AM 30.2 °F 24.3 °F 24.8 °F 80% 29.93 in 10.0 mi ENE 5.8 mph - N/A   Overcast
4:15 AM 30.2 °F 22.6 °F 24.8 °F 80% 29.93 in 10.0 mi ENE 8.1 mph - N/A   Overcast
4:35 AM 30.2 °F 21.9 °F 24.8 °F 80% 29.93 in 10.0 mi ENE 9.2 mph - N/A   Overcast
4:55 AM 30.0 °F 22.4 °F 25.2 °F 82% 29.93 in 10.0 mi NE 8.1 mph - N/A   Overcast
5:15 AM 29.8 °F 22.2 °F 25.2 °F 83% 29.93 in 10.0 mi NE 8.1 mph - N/A   Overcast
5:35 AM 29.7 °F 23.7 °F 25.3 °F 84% 29.92 in 10.0 mi NE 5.8 mph - N/A   Overcast
5:55 AM 29.7 °F 22.8 °F 25.2 °F 83% 29.91 in 10.0 mi ENE 6.9 mph - N/A   Overcast
6:15 AM 29.7 °F 23.7 °F 25.2 °F 83% 29.91 in 4.0 mi ENE 5.8 mph - N/A   Overcast
6:35 AM 29.3 °F 24.3 °F 25.5 °F 86% 29.92 in 1.8 mi NE 4.6 mph - N/A   Overcast
7:15 AM 29.3 °F 22.3 °F 27.5 °F 93% 29.92 in 1.5 mi NE 6.9 mph - N/A   Overcast
7:35 AM 29.3 °F 22.3 °F 28.0 °F 95% 29.93 in 0.8 mi NE 6.9 mph - 0.01 in   Overcast
7:55 AM 29.3 °F 23.2 °F 28.2 °F 96% 29.93 in 0.5 mi NE 5.8 mph - 0.02 in   Overcast
8:15 AM 29.3 °F 22.3 °F 28.2 °F 96% 29.93 in 0.5 mi NE 6.9 mph - 0.01 in   Overcast
8:35 AM 29.3 °F 19.6 °F 28.0 °F 95% 29.93 in 1.0 mi NE 11.5 mph - 0.02 in   Overcast
8:55 AM 29.8 °F 20.9 °F 28.4 °F 94% 29.92 in 1.0 mi NE 10.4 mph - 0.02 in   Overcast
9:15 AM 30.0 °F 21.7 °F 28.4 °F 94% 29.92 in 1.8 mi NE 9.2 mph - N/A   Overcast
9:35 AM 30.2 °F 20.8 °F 28.4 °F 93% 29.91 in 1.8 mi NE 11.5 mph - 0.01 in   Overcast
9:55 AM 30.6 °F 21.2 °F 28.4 °F 92% 29.91 in 1.2 mi NE 11.5 mph - 0.01 in   Overcast
10:15 AM 30.2 °F 20.8 °F 28.2 °F 92% 29.91 in 1.0 mi NNE 11.5 mph - N/A   Overcast
10:35 AM 30.2 °F 19.8 °F 28.0 °F 92% 29.90 in 1.8 mi NE 13.8 mph - N/A   Overcast
10:55 AM 30.2 °F 20.2 °F 27.9 °F 91% 29.89 in 1.2 mi NE 12.7 mph - N/A   Overcast
11:15 AM 30.2 °F 19.3 °F 27.7 °F 90% 29.88 in 1.0 mi NE 15.0 mph - N/A   Overcast
11:35 AM 30.2 °F 19.8 °F 27.9 °F 91% 29.88 in 0.8 mi NE 13.8 mph 18.4 mph N/A   Overcast
11:55 AM 30.2 °F 20.2 °F 27.3 °F 89% 29.88 in 0.8 mi NE 12.7 mph 19.6 mph N/A   Overcast
12:15 PM 30.2 °F 19.8 °F 27.5 °F 90% 29.88 in 1.0 mi NE 13.8 mph 18.4 mph N/A   Overcast
12:35 PM 30.2 °F 21.3 °F 27.9 °F 91% 29.88 in 0.8 mi NE 10.4 mph - N/A   Overcast
12:55 PM 30.2 °F 20.2 °F 27.5 °F 90% 29.88 in 1.5 mi NE 12.7 mph - N/A   Overcast
1:15 PM 30.2 °F 20.8 °F 27.5 °F 90% 29.88 in 1.8 mi NE 11.5 mph 17.3 mph N/A   Overcast
1:35 PM 30.2 °F 20.2 °F 27.5 °F 90% 29.88 in 1.8 mi NE 12.7 mph 18.4 mph N/A   Overcast
1:55 PM 30.2 °F 19.3 °F 27.3 °F 89% 29.88 in 1.8 mi NNE 15.0 mph - N/A   Overcast
2:15 PM 29.8 °F 20.3 °F 27.1 °F 90% 29.89 in 1.8 mi NE 11.5 mph - N/A   Overcast
2:35 PM 29.7 °F 19.6 °F 27.3 °F 91% 29.89 in 0.5 mi NNE 12.7 mph - N/A   Overcast
2:55 PM 29.5 °F 18.0 °F 25.9 °F 86% 29.90 in 1.0 mi NNE 16.1 mph - N/A   Overcast
3:15 PM 29.3 °F 18.2 °F 26.1 °F 88% 29.90 in 1.0 mi NNE 15.0 mph - N/A   Overcast
3:35 PM 29.3 °F 18.2 °F 26.2 °F 88% 29.91 in 1.5 mi NNE 15.0 mph - N/A   Overcast
3:55 PM 28.9 °F 17.7 °F 25.3 °F 86% 29.92 in 1.5 mi NNE 15.0 mph - N/A   Overcast
4:15 PM 29.3 °F 19.1 °F 26.2 °F 88% 29.93 in 1.5 mi NNE 12.7 mph 17.3 mph N/A   Overcast
4:35 PM 29.3 °F 18.6 °F 26.4 °F 89% 29.94 in 1.2 mi NNE 13.8 mph - N/A   Overcast
4:55 PM 29.1 °F 16.7 °F 26.4 °F 90% 29.95 in 1.0 mi NNE 18.4 mph 21.9 mph N/A   Overcast
5:15 PM 28.4 °F 16.2 °F 25.7 °F 90% 29.97 in 1.8 mi NNE 17.3 mph - N/A   Overcast
5:35 PM 28.4 °F 18.0 °F 26.2 °F 92% 29.97 in 0.8 mi North 12.7 mph - N/A   Overcast
5:55 PM 28.4 °F 17.0 °F 26.1 °F 91% 29.98 in 1.0 mi North 15.0 mph - N/A   Overcast
6:15 PM 28.4 °F 17.0 °F 25.3 °F 88% 30.00 in 1.5 mi North 15.0 mph - N/A   Overcast
6:35 PM 28.4 °F 17.5 °F 24.8 °F 86% 30.00 in 3.0 mi North 13.8 mph - N/A   Overcast
6:55 PM 28.4 °F 18.0 °F 25.5 °F 89% 30.01 in 3.0 mi North 12.7 mph 17.3 mph N/A   Overcast
7:15 PM 28.4 °F 18.0 °F 25.7 °F 90% 30.01 in 3.0 mi North 12.7 mph - N/A   Overcast
7:35 PM 28.8 °F 19.5 °F 25.0 °F 86% 30.02 in 4.0 mi North 10.4 mph 13.8 mph N/A   Overcast
7:55 PM 28.4 °F 18.0 °F 24.8 °F 86% 30.03 in 7.0 mi North 12.7 mph - N/A   Overcast
8:15 PM 28.4 °F 19.7 °F 24.4 °F 85% 30.03 in 10.0 mi North 9.2 mph - N/A   Overcast
8:35 PM 27.7 °F 17.6 °F 23.9 °F 86% 30.04 in 7.0 mi North 11.5 mph - N/A   Overcast
8:55 PM 27.3 °F 17.1 °F 23.4 °F 85% 30.05 in 10.0 mi North 11.5 mph - N/A   Mostly Cloudy
9:15 PM 27.3 °F 16.6 °F 23.0 °F 84% 30.05 in 10.0 mi North 12.7 mph - N/A   Scattered Clouds
9:35 PM 27.5 °F 17.4 °F 23.0 °F 83% 30.06 in 10.0 mi North 11.5 mph - N/A   Overcast
9:55 PM 27.5 °F 18.0 °F 23.0 °F 83% 30.07 in 10.0 mi NNW 10.4 mph - N/A   Overcast
10:15 PM 27.5 °F 18.0 °F 22.6 °F 82% 30.07 in 10.0 mi NNW 10.4 mph - N/A   Overcast
10:35 PM 27.0 °F 16.7 °F 22.1 °F 82% 30.08 in 10.0 mi NNW 11.5 mph - N/A   Overcast
10:55 PM 26.6 °F 16.2 °F 22.5 °F 84% 30.08 in 10.0 mi NNW 11.5 mph - N/A   Overcast
11:15 PM 27.3 °F 16.6 °F 23.4 °F 85% 30.09 in 10.0 mi NNW 12.7 mph - N/A   Overcast
11:35 PM 27.5 °F 17.4 °F 23.2 °F 84% 30.09 in 10.0 mi NNW 11.5 mph - N/A   Overcast
11:55 PM 28.0 °F 17.5 °F 23.0 °F 81% 30.10 in 10.0 mi NNW 12.7 mph - N/A   Overcast